Helicity
327 328 316 284 241 214 210 168 141 154 156 151 146 140 130 114 106 101 101 93 94 73 71 72 58 56 60 63 62 61 52 54
347 339 318 291 262 231 206 176 143 145 133 122 106 105 106 103 100 103 94 83 81 73 60 60 50 53 53 61 61 78 73 86
345 347 316 267 246 249 211 171 143 123 112 120 104 110 128 117 104 109 104 100 91 75 64 57 60 54 73 80 82 69 61 76
383 368 322 301 280 238 211 197 168 128 131 144 144 132 108 107 113 107 102 89 84 80 80 73 71 58 39 27 20 37 35 60
378 370 342 295 266 281 259 240 218 169 152 132 111 98 99 96 99 91 88 92 88 83 72 49 25 -2 0 0 9 20 44 65
490 431 351 297 300 284 299 294 265 216 187 159 133 133 128 107 100 106 109 105 102 72 44 23 18 10 24 43 55 63 52 48
299 337 376 351 347 345 359 334 317 278 236 196 164 143 116 112 112 118 103 72 46 42 26 24 28 30 47 50 61 84 69 55
295 372 445 444 447 431 411 385 348 302 274 231 175 147 128 129 124 109 88 64 52 54 43 51 54 63 69 70 86 93 100 104
306 329 445 509 509 464 415 392 348 308 268 230 187 154 134 131 120 94 89 72 64 60 67 67 75 78 71 75 82 89 110 124
296 337 444 558 545 480 401 352 329 300 256 225 191 155 144 135 122 107 99 91 83 86 83 89 91 83 84 89 99 112 107 117
260 351 423 513 502 450 391 322 290 269 238 214 183 162 154 131 130 131 115 97 88 84 91 107 110 100 110 109 103 106 104 97
225 315 395 465 495 439 380 324 294 244 216 195 171 168 151 146 140 127 110 96 93 103 107 108 97 104 111 104 102 96 112 102
188 244 325 423 537 477 368 288 222 198 198 179 184 173 171 158 145 118 94 105 111 104 103 103 111 123 109 100 104 98 106 104
182 283 362 433 528 424 341 265 214 208 195 200 196 181 147 135 121 131 117 120 120 125 106 110 117 113 106 89 98 90 85 83
198 232 287 398 417 351 267 226 249 208 199 169 175 160 142 139 157 144 128 128 125 96 95 117 125 112 100 95 77 68 69 65
147 168 213 290 311 259 253 258 246 199 175 213 197 224 183 165 138 128 129 136 112 100 94 131 132 120 95 68 77 56 54 63
128 121 185 195 225 275 217 219 229 290 304 329 281 231 219 134 118 141 155 129 121 114 120 147 131 102 101 110 67 65 65 59
198 191 198 239 187 247 270 274 291 278 339 360 340 289 237 168 123 138 146 128 118 125 131 122 109 101 113 98 83 69 75 75
283 354 270 255 203 157 297 310 263 291 348 299 211 135 107 140 135 164 163 132 134 135 124 105 106 91 90 94 80 68 75 79
Wind_Speed
27 24 20 16 14 14 16 19 19 23 27 28 30 32 34 35 37 39 40 40 41 40 41 44 45 47 49 52 54 56 56 65
29 25 21 19 18 18 17 18 15 17 21 25 29 30 31 34 36 38 39 40 42 42 43 45 46 49 51 54 55 59 60 68
32 28 26 23 21 21 19 20 14 17 22 25 27 27 31 33 35 39 40 41 43 43 45 47 49 50 54 56 58 60 60 65
37 35 31 25 24 21 21 21 17 18 21 21 23 26 30 34 37 38 41 42 43 44 45 47 49 51 53 55 58 61 64 63
42 39 34 30 27 23 22 22 20 19 16 20 21 28 30 31 33 35 38 41 43 44 45 47 48 50 53 55 57 59 62 66
45 44 38 32 27 25 22 22 23 20 20 20 23 25 25 27 30 34 38 41 43 44 46 47 49 51 53 56 59 61 62 62
39 39 38 35 30 27 25 24 24 21 20 19 19 19 21 25 29 34 38 40 42 44 45 46 49 51 55 57 60 62 62 60
38 41 43 39 34 30 27 24 23 21 19 18 18 19 21 24 29 33 36 40 42 45 45 48 51 53 55 56 59 60 59 58
38 39 42 41 36 33 29 26 23 20 18 16 16 17 20 24 28 32 37 39 41 43 45 46 49 52 53 55 58 57 57 57
36 36 40 41 37 34 31 27 24 20 18 16 16 17 19 23 28 31 36 38 39 41 43 45 49 52 54 54 56 57 56 56
37 37 40 40 37 33 31 28 25 21 17 16 16 17 19 22 26 31 34 35 36 38 40 44 48 49 51 51 52 54 54 54
43 36 34 35 34 35 33 30 25 22 18 16 14 16 17 21 25 29 32 33 34 37 39 43 45 48 49 49 50 51 52 54
41 38 32 36 37 36 34 31 28 24 19 15 15 14 16 18 23 26 28 31 33 35 37 41 43 47 47 47 49 51 53 53
45 39 37 36 34 35 34 31 27 24 19 17 16 14 13 16 19 24 28 29 30 32 35 38 42 43 45 46 47 49 48 50
51 47 41 36 35 33 32 29 25 22 22 16 16 14 13 16 20 23 25 26 27 30 33 37 40 41 42 43 43 44 45 46
53 48 44 39 37 35 32 28 25 24 22 22 13 12 16 13 16 19 20 21 23 29 31 36 38 39 39 38 40 40 42 43
54 46 44 43 40 38 31 30 24 21 20 15 13 11 12 11 12 14 17 20 23 27 30 34 36 37 37 38 37 40 41 42
52 47 44 38 40 32 30 28 21 22 19 17 14 10 7 7 8 11 14 18 22 25 27 30 32 32 34 35 35 38 41 42
38 35 38 34 34 32 26 23 23 22 17 11 10 3 2 5 8 11 14 18 20 22 25 27 30 31 30 31 33 36 39 42
Wind_Direction
263 267 278 287 302 317 333 344 356 2 360 3 2 357 353 350 348 347 345 344 342 341 340 337 336 334 332 331 328 329 327 323
263 263 267 277 290 299 316 328 346 360 354 348 349 352 354 352 352 350 349 348 346 344 342 340 339 337 335 335 333 329 327 327
250 252 257 263 273 288 300 313 327 337 338 341 343 348 351 352 352 350 349 348 347 346 343 341 340 337 336 335 334 331 331 332
244 247 247 255 264 273 286 303 313 318 326 336 343 348 346 342 343 346 349 350 349 347 345 344 343 342 338 338 336 335 331 332
243 239 238 246 259 270 282 297 307 309 315 320 327 329 334 339 344 347 349 351 351 350 350 349 347 343 341 340 341 339 336 332
236 231 233 240 250 262 277 293 302 304 305 312 319 328 337 343 347 349 351 352 354 352 351 347 346 345 346 345 343 341 339 336
245 238 234 240 247 256 268 280 292 300 302 308 318 326 332 340 343 347 349 349 349 349 349 349 349 347 346 345 345 345 344 342
241 233 229 234 239 249 260 268 279 289 294 301 312 321 328 336 342 344 347 348 347 347 348 348 348 348 349 349 349 348 349 349
249 239 234 235 239 246 253 259 268 276 282 291 305 316 324 333 338 342 345 346 347 348 350 351 352 352 353 353 352 353 354 353
261 249 241 238 239 241 245 252 261 266 271 282 296 310 321 329 336 342 344 348 351 353 355 355 353 352 354 355 356 356 355 355
272 258 249 243 240 240 244 250 253 255 258 271 286 303 316 328 339 343 347 352 354 355 356 355 354 356 359 1 0 359 358 358
277 268 258 244 238 238 242 246 246 245 250 263 276 296 313 330 341 345 348 353 355 355 356 356 358 0 1 3 5 3 2 360
278 269 254 241 236 235 235 239 239 242 247 252 272 289 313 332 339 343 348 352 354 357 358 360 1 2 4 7 4 3 4 2
280 273 261 244 232 229 226 226 231 237 239 252 266 286 312 329 339 345 346 353 358 1 1 2 3 5 7 7 6 7 7 5
279 275 263 246 230 223 220 223 222 222 238 241 266 284 306 322 332 341 348 0 6 2 1 3 7 7 7 8 10 10 10 11
277 272 262 248 235 223 220 219 218 223 237 250 254 285 301 330 342 0 10 14 9 359 0 7 11 10 10 15 16 14 13 13
276 269 260 244 234 230 219 212 205 221 227 239 259 275 299 322 353 18 14 2 4 358 3 9 14 14 18 22 22 19 18 16
281 270 261 240 242 219 217 230 224 225 231 247 263 272 292 341 21 18 1 355 355 3 11 14 18 21 24 26 25 24 21 15
293 284 267 247 232 228 229 217 231 234 237 232 257 215 296 19 16 14 356 350 358 6 13 18 18 22 27 28 23 27 25 16